Date String (YYYY-MM-DD hh:mm:ss) UTC,Instrument flags,absolute air pressure of the measurement (hPa),sample flow rate (lpm),inlet stack bypass flow (lpm),air temperature of the measurement (°C),ambient temperature measured by the external sensor (°C),aerosol sample conditioner tube jacket temperature (°C),OPC LED temperature (°C),internal box temperature (°C),relative humidity of the measurement (%),span deviation,mass concentration of particles derived from Lorenz-Mie calculation of OPC scattering (μg/m³),mass concentration of particles derived from Lorenz-Mie calculation of OPC scattering (μg/m³),mass concentration of particles derived from Lorenz-Mie calculation of OPC scattering (μg/m³)
DateTimeUTC,F1_M11,P_M11,Q1_M11,Q2_M11,T1_M11,T2_M11,T3_M11,T4_M11,T5_M11,U1_M11,ZSPAN_M11,X0_M11,X2_M11,X1_M11
2023-08-03 01:00:00,SystemResetWarning,0833.0,5.00,000.00,029.0,026.7,000.0,037.4,030.5,33.3,0000.0,0005.39,0003.27,0002.67
2023-08-03 01:01:00,SystemResetWarning,0833.0,5.00,000.00,029.1,027.1,000.0,037.4,030.6,33.7,0000.0,0005.49,0003.30,0002.67
2023-08-03 01:02:00,SystemResetWarning,0833.0,5.00,000.00,029.1,027.4,000.0,037.4,030.7,33.1,0000.0,0005.56,0003.27,0002.68
2023-08-03 01:03:00,SystemResetWarning,0833.0,5.00,000.00,029.1,027.7,000.0,037.5,030.8,33.1,0000.0,0005.62,0003.28,0002.69
2023-08-03 01:04:00,SystemResetWarning,0833.0,4.98,000.00,029.2,027.6,000.0,037.4,030.8,33.1,0000.0,0005.70,0003.30,0002.71
2023-08-03 01:05:00,SystemResetWarning,0833.0,4.99,000.00,029.2,026.1,000.0,037.3,030.6,33.0,0000.0,0005.66,0003.28,0002.69
2023-08-03 01:06:00,SystemResetWarning,0833.0,5.01,000.00,029.1,025.0,000.0,037.2,030.4,33.3,0000.0,0005.32,0003.25,0002.68
2023-08-03 01:07:00,SystemResetWarning,0833.0,5.01,000.00,029.0,025.0,000.0,037.2,030.2,33.2,0000.0,0004.90,0003.20,0002.66
2023-08-03 01:08:00,SystemResetWarning,0833.0,4.98,000.00,028.9,025.3,000.0,037.3,030.2,32.8,0000.0,0004.89,0003.20,0002.65
2023-08-03 01:09:00,SystemResetWarning,0833.1,4.99,000.00,028.9,025.8,000.0,037.3,030.3,32.9,0000.0,0004.95,0003.20,0002.64
2023-08-03 01:10:00,SystemResetWarning,0833.2,5.00,000.00,028.9,026.2,000.0,037.3,030.4,33.5,0000.0,0005.60,0003.18,0002.61
2023-08-03 01:11:00,SystemResetWarning,0833.3,5.01,000.00,028.9,026.7,000.0,037.3,030.5,34.2,0000.0,0005.69,0003.17,0002.61
2023-08-03 01:12:00,SystemResetWarning,0833.2,5.00,000.00,029.0,027.0,000.0,037.3,030.6,34.1,0000.0,0005.79,0003.18,0002.60
2023-08-03 01:13:00,SystemResetWarning,0833.2,5.00,000.00,029.0,027.3,000.0,037.4,030.7,33.4,0000.0,0005.70,0003.17,0002.59
2023-08-03 01:14:00,SystemResetWarning,0833.2,5.00,000.00,029.1,027.6,000.0,037.4,030.7,33.0,0000.0,0005.54,0003.14,0002.57
2023-08-03 01:15:00,SystemResetWarning,0833.2,5.00,000.00,029.1,027.7,000.0,037.4,030.8,32.9,0000.0,0005.50,0003.11,0002.54
2023-08-03 01:16:00,SystemResetWarning,0833.2,4.98,000.00,029.1,026.4,000.0,037.3,030.6,34.0,0000.0,0005.64,0003.14,0002.54
2023-08-03 01:17:00,SystemResetWarning,0833.2,5.00,000.00,029.0,025.1,000.0,037.2,030.4,33.7,0000.0,0005.61,0003.15,0002.55
2023-08-03 01:18:00,SystemResetWarning,0833.2,5.00,000.00,029.0,024.9,000.0,037.1,030.2,33.7,0000.0,0005.55,0003.15,0002.56
2023-08-03 01:19:00,SystemResetWarning,0833.2,5.01,000.00,028.9,025.2,000.0,037.2,030.1,34.4,0000.0,0005.54,0003.14,0002.56
2023-08-03 01:20:00,SystemResetWarning,0833.2,4.99,000.00,028.9,025.6,000.0,037.2,030.2,35.2,0000.0,0005.36,0003.12,0002.57
2023-08-03 01:21:00,SystemResetWarning,0833.2,5.03,000.00,029.0,026.1,000.0,037.2,030.4,34.8,0000.0,0004.70,0003.12,0002.57
2023-08-03 01:22:00,SystemResetWarning,0833.2,4.98,000.00,029.2,026.5,000.0,037.3,030.5,34.5,0000.0,0004.50,0003.12,0002.57
2023-08-03 01:23:00,SystemResetWarning,0833.2,5.02,000.00,029.4,026.9,000.0,037.3,030.6,34.7,0000.0,0004.34,0003.07,0002.57
2023-08-03 01:24:00,SystemResetWarning,0833.2,5.00,000.00,029.5,027.2,000.0,037.4,030.7,34.5,0000.0,0005.36,0003.07,0002.57
2023-08-03 01:25:00,SystemResetWarning,0833.3,5.00,000.00,029.5,027.5,000.0,037.4,030.8,34.4,0000.0,0006.76,0003.11,0002.58
2023-08-03 01:26:00,SystemResetWarning,0833.2,4.99,000.00,029.6,027.7,000.0,037.5,030.9,34.6,0000.0,0006.75,0003.11,0002.58
2023-08-03 01:27:00,SystemResetWarning,0833.2,5.00,000.00,029.6,026.8,000.0,037.4,030.7,34.5,0000.0,0006.74,0003.11,0002.59
2023-08-03 01:28:00,SystemResetWarning,0833.2,4.99,000.00,029.6,025.3,000.0,037.4,030.5,34.3,0000.0,0006.92,0003.11,0002.59
2023-08-03 01:29:00,SystemResetWarning,0833.2,5.00,000.00,029.5,024.9,000.0,037.3,030.3,34.7,0000.0,0006.92,0003.08,0002.59
2023-08-03 01:30:00,SystemResetWarning,0833.2,5.01,000.00,029.4,025.1,000.0,037.4,030.2,34.8,0000.0,0006.93,0003.10,0002.60
2023-08-03 01:31:00,SystemResetWarning,0833.2,4.99,000.00,029.3,025.6,000.0,037.4,030.2,34.9,0000.0,0007.00,0003.11,0002.59
2023-08-03 01:32:00,SystemResetWarning,0833.1,4.99,000.00,029.4,026.0,000.0,037.5,030.4,35.0,0000.0,0007.04,0003.13,0002.60
2023-08-03 01:33:00,SystemResetWarning,0833.2,5.01,000.00,029.6,026.5,000.0,037.5,030.6,34.3,0000.0,0007.14,0003.14,0002.60
2023-08-03 01:34:00,SystemResetWarning,0833.3,4.98,000.00,029.7,026.9,000.0,037.6,030.7,33.8,0000.0,0007.45,0003.16,0002.58
2023-08-03 01:35:00,SystemResetWarning,0833.2,5.02,000.00,029.8,027.2,000.0,037.6,030.8,33.9,0000.0,0006.79,0003.18,0002.58
2023-08-03 01:36:00,SystemResetWarning,0833.2,5.00,000.00,029.9,027.5,000.0,037.7,030.9,34.3,0000.0,0005.31,0003.16,0002.57
2023-08-03 01:37:00,SystemResetWarning,0833.2,5.00,000.00,029.9,027.8,000.0,037.7,031.0,34.5,0000.0,0005.29,0003.19,0002.58
2023-08-03 01:38:00,SystemResetWarning,0833.2,4.98,000.00,030.0,027.1,000.0,037.7,030.9,34.5,0000.0,0005.50,0003.22,0002.59
2023-08-03 01:39:00,SystemResetWarning,0833.2,5.00,000.00,029.9,025.6,000.0,037.6,030.6,35.0,0000.0,0005.52,0003.24,0002.59
2023-08-03 01:40:00,SystemResetWarning,0833.1,5.03,000.00,029.9,025.0,000.0,037.6,030.5,36.0,0000.0,0005.57,0003.26,0002.60
2023-08-03 01:41:00,SystemResetWarning,0833.1,5.00,000.00,030.1,025.1,000.0,037.6,030.4,36.1,0000.0,0005.61,0003.27,0002.60
2023-08-03 01:42:00,SystemResetWarning,0833.1,4.99,000.00,030.3,025.5,000.0,037.7,030.6,36.2,0000.0,0005.50,0003.25,0002.60
2023-08-03 01:43:00,SystemResetWarning,0833.2,5.00,000.00,030.7,026.0,000.0,037.8,030.9,35.7,0000.0,0005.43,0003.24,0002.59
2023-08-03 01:44:00,SystemResetWarning,0833.2,5.03,000.00,031.1,026.5,000.0,037.9,031.1,34.9,0000.0,0005.62,0003.25,0002.59
2023-08-03 01:45:00,SystemResetWarning,0833.2,4.97,000.00,031.4,026.9,000.0,038.0,031.2,34.3,0000.0,0005.75,0003.25,0002.61
2023-08-03 01:46:00,SystemResetWarning,0833.2,5.01,000.00,031.6,027.2,000.0,038.2,031.3,34.1,0000.0,0005.63,0003.23,0002.60
2023-08-03 01:47:00,SystemResetWarning,0833.3,5.02,000.00,031.8,027.5,000.0,038.4,031.3,34.0,0000.0,0005.85,0003.23,0002.60
2023-08-03 01:48:00,SystemResetWarning,0833.3,5.00,000.00,031.9,027.8,000.0,038.5,031.4,33.9,0000.0,0006.60,0003.25,0002.61
2023-08-03 01:49:00,SystemResetWarning,0833.4,5.00,000.00,031.9,027.9,000.0,038.7,031.5,34.0,0000.0,0006.44,0003.22,0002.59
2023-08-03 01:50:00,SystemResetWarning,0833.4,4.99,000.00,032.0,026.8,000.0,038.7,031.3,33.9,0000.0,0006.57,0003.20,0002.59
2023-08-03 01:51:00,SystemResetWarning,0833.3,5.02,000.00,032.0,025.4,000.0,038.7,031.0,33.8,0000.0,0006.44,0003.19,0002.58
2023-08-03 01:52:00,SystemResetWarning,0833.3,5.01,000.00,031.9,025.0,000.0,038.7,030.9,33.9,0000.0,0006.47,0003.20,0002.58
2023-08-03 01:53:00,SystemResetWarning,0833.2,5.00,000.00,031.7,025.2,000.0,038.8,030.8,34.4,0000.0,0006.57,0003.21,0002.58
2023-08-03 01:54:00,SystemResetWarning,0833.3,5.00,000.00,031.6,025.7,000.0,038.9,030.8,34.7,0000.0,0006.69,0003.23,0002.59
2023-08-03 01:55:00,SystemResetWarning,0833.3,5.00,000.00,031.5,026.1,000.0,039.0,030.9,34.7,0000.0,0006.70,0003.24,0002.60
2023-08-03 01:56:00,SystemResetWarning,0833.4,5.00,000.00,031.5,026.6,000.0,039.1,031.1,34.8,0000.0,0006.19,0003.24,0002.60
2023-08-03 01:57:00,SystemResetWarning,0833.4,5.00,000.00,031.5,027.0,000.0,039.1,031.2,34.6,0000.0,0006.25,0003.24,0002.59
2023-08-03 01:58:00,SystemResetWarning,0833.4,5.00,000.00,031.4,027.3,000.0,039.1,031.3,34.7,0000.0,0006.71,0003.26,0002.60
2023-08-03 01:59:00,SystemResetWarning,0833.4,5.00,000.00,031.4,027.6,000.0,039.2,031.3,34.8,0000.0,0005.97,0003.24,0002.60
